Погода в Моранбе

Австралия     21°53′08″S   147°57′58″E
темп.,
°C
ветер,
м/с
пор.,
м/с
влажн.,
%
обл.,
%
осадки,
мм/ч
давл.,
гПа
погр.,
м
19 апреля, пн
пн1901:00+19вюв47780 0.0 1015124
04:00+18юв59880 0.0 1014193
07:00+17юв611540 0.0 1016249
10:00+24вюв88460 0.0 1017747
13:00+28вюв55410 0.0 10131591
16:00+29в653841 0.0 10121941
19:00+23всв586818 0.0 1014219
22:00+21в48792 0.0 1016206
20 апреля, вт
вт2001:00+19в59890 0.0 1015207
04:00+18вюв410940 0.0 1014209
07:00+18вюв410920 0.0 1016318
10:00+26в77540 0.0 10171010
13:00+29в543930 0.0 10141752
16:00+29в544089 0.0 10121861
19:00+24св786259 0.0 1015459
22:00+22св5869100 0.0 1016308
21 апреля, ср
ср2101:00+21всв457486 0.0 1015175
04:00+22св1172100 0.0 101438
07:00+22св117169 0.0 101589
10:00+26вюв225542 0.0 1016880
13:00+26св3253100 0.0 1013704
16:00+28вюв224795 0.0 10111020
19:00+26всв6861100 0.1 1013334
22:00+23с367990 0.9 1014223
22 апреля, чт
чт2201:00+23сз238387 0.3 1013170
04:00+21зсз228754 0.3 101220
07:00+22сз128398 0.0 1014114
10:00+24всв0072100 0.1 1014364
13:00+22вюв1184100 2.1 1012104
16:00+21вюв2391100 5.3 1011215
19:00+21в4692100 1.0 1013289
22:00+20в3590100 1.9 1014217
23 апреля, пт
пт2301:00+20вюв4891100 0.2 1013288
04:00+20юв51092100 0.3 1012451
07:00+15юв91385100 3.5 1015366
10:00+14юв91593100 6.8 1015425
13:00+15юв81396100 12.9 1013452
16:00+15юв91597100 18.5 1012555
19:00+15юв101697100 14.6 1015551
22:00+14юв81397100 26.8 1017329